Date,TemperatureHighF,TemperatureAvgF,TemperatureLowF,DewpointHighF,DewpointAvgF,DewpointLowF,HumidityHigh,HumidityAvg,HumidityLow,PressureMaxIn,PressureMinIn,WindSpeedMaxMPH,WindSpeedAvgMPH,GustSpeedMaxMPH,PrecipitationSumIn
2013-4-1,75.9,64.2,49.3,28.9,22.9,16.3,44,22,12,30.12,29.94,3,1,9,0.00
2013-4-2,60.8,56.0,51.6,24.2,20.6,15.8,34,25,20,30.05,29.95,6,1,10,0.00
2013-4-3,69.1,53.1,37.2,33.9,26.2,18.7,72,40,15,30.17,30.05,3,1,9,0.00
2013-4-4,75.9,58.9,39.7,31.0,23.9,16.8,62,30,12,30.26,30.12,3,1,7,0.00
2013-4-5,77.5,66.0,53.6,24.3,19.9,13.7,24,17,12,30.15,29.91,6,2,14,0.00
2013-4-6,78.8,63.7,49.8,27.1,22.7,17.6,38,22,12,30.08,29.92,3,1,9,0.00
2013-4-7,77.4,69.0,57.6,25.9,21.3,16.3,24,17,12,29.99,29.86,3,1,9,0.00
2013-4-8,77.2,64.8,52.7,30.8,22.8,16.3,40,21,12,29.88,29.53,9,4,21,1.51
2013-4-9,54.3,45.9,39.0,37.3,33.0,27.6,88,62,41,29.92,29.56,6,3,14,0.14
2013-4-10,44.2,40.9,37.6,35.3,26.8,22.0,89,59,42,30.02,29.91,4,1,7,0.01
2013-4-11,65.5,48.6,31.1,32.5,24.7,16.5,65,41,21,30.02,29.90,5,2,12,0.00
2013-4-12,73.0,58.9,44.6,37.0,29.7,20.8,65,36,14,30.01,29.91,3,0,9,0.00
2013-4-13,76.6,62.4,44.2,30.2,23.0,16.5,48,25,12,29.99,29.78,4,2,10,0.00
2013-4-14,77.7,65.5,55.4,25.7,22.6,18.2,28,20,13,29.84,29.73,5,3,12,0.01
2013-4-15,82.2,66.1,48.7,25.8,22.1,16.9,38,20,11,29.88,29.71,5,2,12,0.01
2013-4-16,80.6,67.3,55.2,25.8,21.2,16.5,27,18,11,29.92,29.75,8,4,21,1.42
2013-4-17,65.1,53.3,39.9,30.1,20.7,11.7,45,29,19,30.03,29.78,5,2,11,0.00
2013-4-18,51.8,41.5,29.8,19.6,9.7,0.9,45,27,21,30.23,30.02,4,2,13,0.00
2013-4-19,65.5,47.7,28.6,19.9,10.6,-0.5,30,22,17,30.29,30.04,3,1,7,0.00
2013-4-20,71.6,57.4,44.6,21.5,15.9,7.1,25,20,13,30.09,29.93,5,2,11,0.00
2013-4-21,77.2,60.4,42.1,24.7,20.9,16.3,46,24,12,30.19,30.04,4,1,10,0.00
2013-4-22,84.0,67.5,50.5,31.3,20.3,15.2,26,17,11,30.09,29.89,6,2,11,0.00
2013-4-23,70.9,58.6,41.7,32.1,21.5,6.8,55,25,15,30.15,29.93,7,2,14,0.00
2013-4-24,66.0,51.1,32.2,22.8,18.8,10.7,52,31,17,30.17,30.09,2,0,6,0.00
2013-4-25,77.9,61.7,47.1,30.8,23.9,16.6,43,25,13,30.17,29.93,9,2,18,0.35
2013-4-26,78.3,62.7,47.1,33.7,25.4,16.3,55,28,12,30.25,30.09,3,1,8,0.00
2013-4-27,79.3,63.8,45.3,30.9,24.8,16.6,50,26,12,30.27,30.11,3,1,8,0.00
2013-4-28,82.9,66.7,47.7,30.6,19.3,12.7,25,17,11,30.15,29.97,2,1,7,0.00
2013-4-29,87.3,69.0,50.2,31.5,21.8,13.8,25,17,11,30.04,29.85,4,1,9,0.00
2013-4-30,88.0,73.2,58.6,31.5,23.2,16.3,23,16,11,29.96,29.84,5,2,10,0.00